Weather in Pruzhany

Belarus     52°33′18″N   24°27′45″E
temp.,
°C
wind,
m/s
gust,
m/s
humid.,
%
clouds,
%
prec.,
mm/h
press.,
hPa
HPBL,
m
28 september, tue
tue2800:00+7ese410875 0.0 1026269
03:00+6ese37880 0.0 1026129
06:00+5e34863 0.0 102670
09:00+8ese36783 0.0 1026170
12:00+13ese675745 0.0 10271295
15:00+13ese4556100 0.0 10271488
18:00+12e3671100 0.1 1028360
21:00+10e4107312 0.1 1028318
29 september, wed
wed2900:00+7e38895 0.0 1030162
03:00+6e39943 0.0 1030179
06:00+5ese410955 0.0 1030216
09:00+7ese511875 0.0 1030342
12:00+12ese79652 0.0 1030831
15:00+14se785610 0.0 10281372
18:00+13ese610644 0.0 1028705
21:00+9ese614752 0.0 1028390
30 september, thu
thu3000:00+9se615715 0.0 1028428
03:00+7se615795 0.0 1029410
06:00+7se615805 0.0 1028380
09:00+8se614755 0.0 1028433
12:00+13sse7105791 0.0 1028777
15:00+15sse5855100 0.0 10281105
18:00+13sw2368100 0.0 102887
21:00+11w1170100 0.0 102918
1 october, fri
fri100:00+11wsw1174100 0.0 103031
03:00+10nw1184100 0.0 103025
06:00+10n2293100 0.2 1030102
09:00+10e1189100 0.2 1031104
12:00+10e2382100 0.3 1031175
15:00+12sse356389 0.3 1030442
18:00+12se226295 0.0 102928
21:00+11se4864100 0.0 1029182
2 october, sat
sat200:00+9se41064100 0.0 1029196
03:00+7se4106777 0.0 1028176
06:00+6se4106735 0.0 1027183
09:00+8se5126027 0.0 1026308
12:00+14sse7104597 0.0 1025647
15:00+16sse794027 0.0 10241065
18:00+14sse5115017 0.0 1023400
21:00+10se5136175 0.0 1024275